JBU537 KDFW-KFLL

Flight info

Callsign JBU537
Flight time N/A
Altitude 35000
Route MRSSH3 ZALEA HRV Q105 BLVNS Y290 DOWRY TEEKY4
Aircraft A320/M-SDE3FGHIRWY/LB1

Departure

Time 2026-05-07 23:46
Airport Dallas Fort Worth International Airport (KDFW)

Arrival

Time N/A
Airport Fort Lauderdale Hollywood International Airport (KFLL)
Time Latitude Longitude Altitude Speed Heading
2026-05-07 23:23 32.89316 -97.03712 578 ft 0 kts 206°
2026-05-07 23:35 32.89323 -97.03708 578 ft 2 kts 206°
2026-05-07 23:35 32.89336 -97.03700 579 ft 2 kts 206°
2026-05-07 23:36 32.89350 -97.03692 579 ft 2 kts 205°
2026-05-07 23:36 32.89364 -97.03684 579 ft 2 kts 206°
2026-05-07 23:36 32.89370 -97.03680 579 ft 1 kts 188°
2026-05-07 23:36 32.89378 -97.03683 579 ft 1 kts 127°
2026-05-07 23:37 32.89380 -97.03690 579 ft 0 kts 84°
2026-05-07 23:37 32.89379 -97.03697 579 ft 0 kts 91°
2026-05-07 23:40 32.89379 -97.03690 579 ft 3 kts 91°
2026-05-07 23:40 32.89379 -97.03642 578 ft 6 kts 87°
2026-05-07 23:40 32.89389 -97.03577 578 ft 10 kts 77°
2026-05-07 23:40 32.89395 -97.03489 577 ft 11 kts 92°
2026-05-07 23:41 32.89394 -97.03381 576 ft 14 kts 90°
2026-05-07 23:41 32.89333 -97.03313 575 ft 15 kts 186°
2026-05-07 23:41 32.89225 -97.03321 574 ft 15 kts 178°
2026-05-07 23:41 32.89103 -97.03320 573 ft 18 kts 179°
2026-05-07 23:42 32.88963 -97.03317 572 ft 21 kts 179°
2026-05-07 23:42 32.88808 -97.03318 572 ft 21 kts 179°
2026-05-07 23:42 32.88659 -97.03320 571 ft 20 kts 181°
2026-05-07 23:42 32.88524 -97.03317 570 ft 16 kts 169°
2026-05-07 23:43 32.88414 -97.03288 570 ft 16 kts 181°
2026-05-07 23:43 32.88302 -97.03290 569 ft 16 kts 180°
2026-05-07 23:43 32.88186 -97.03288 568 ft 16 kts 179°
2026-05-07 23:43 32.88071 -97.03291 566 ft 16 kts 180°
2026-05-07 23:44 32.87967 -97.03251 565 ft 13 kts 140°
2026-05-07 23:44 32.87909 -97.03174 565 ft 12 kts 109°
2026-05-07 23:44 32.87904 -97.03067 565 ft 12 kts 91°
2026-05-07 23:44 32.87951 -97.03002 566 ft 12 kts 357°
2026-05-07 23:45 32.88102 -97.03008 567 ft 46 kts
2026-05-07 23:45 32.88647 -97.03004 568 ft 108 kts
2026-05-07 23:45 32.89584 -97.02997 571 ft 160 kts 359°
2026-05-07 23:45 32.90834 -97.02989 707 ft 190 kts
2026-05-07 23:46 32.92198 -97.02953 1093 ft 203 kts
2026-05-07 23:46 32.93565 -97.02812 1901 ft 192 kts 14°
2026-05-07 23:46 32.94815 -97.02375 2552 ft 191 kts 20°
2026-05-07 23:46 32.96125 -97.01851 2933 ft 207 kts 20°
2026-05-07 23:47 32.97551 -97.01305 3285 ft 226 kts 19°
2026-05-07 23:47 32.99152 -97.00729 3641 ft 247 kts 19°
2026-05-07 23:47 33.00707 -96.99799 4066 ft 263 kts 43°
2026-05-07 23:47 33.01767 -96.97997 4678 ft 271 kts 73°
2026-05-07 23:48 33.01970 -96.95803 5492 ft 271 kts 97°
2026-05-07 23:48 33.01353 -96.93719 6185 ft 274 kts 120°
2026-05-07 23:48 33.00338 -96.91778 6848 ft 279 kts 121°
2026-05-07 23:48 32.99304 -96.89811 7473 ft 284 kts 121°
2026-05-07 23:49 32.98254 -96.87807 8094 ft 289 kts 121°
2026-05-07 23:49 32.97193 -96.85777 8708 ft 293 kts 121°
2026-05-07 23:49 32.96115 -96.83708 9288 ft 298 kts 122°
2026-05-07 23:49 32.95020 -96.81609 9838 ft 302 kts 122°
2026-05-07 23:50 32.93904 -96.79472 10281 ft 310 kts 122°
2026-05-07 23:50 32.92725 -96.77215 10543 ft 325 kts 123°
2026-05-07 23:50 32.91520 -96.74910 10797 ft 339 kts 123°
2026-05-07 23:50 32.90238 -96.72460 11054 ft 354 kts 124°
2026-05-07 23:51 32.88912 -96.69929 11346 ft 367 kts 124°
2026-05-07 23:51 32.87550 -96.67332 11807 ft 373 kts 124°
2026-05-07 23:51 32.86181 -96.64721 12309 ft 376 kts 124°
2026-05-07 23:51 32.84791 -96.62072 12806 ft 380 kts 125°
2026-05-07 23:52 32.83389 -96.59400 13377 ft 380 kts 125°
2026-05-07 23:52 32.82004 -96.56766 13861 ft 383 kts 125°
2026-05-07 23:52 32.80579 -96.54057 14328 ft 386 kts 125°
2026-05-07 23:52 32.79161 -96.51364 14768 ft 390 kts 126°
2026-05-07 23:53 32.77723 -96.48633 15228 ft 393 kts 126°
2026-05-07 23:53 32.76253 -96.45843 15699 ft 396 kts 126°
2026-05-07 23:53 32.74794 -96.43076 16160 ft 399 kts 126°
2026-05-07 23:53 32.73327 -96.40294 16591 ft 401 kts 126°
2026-05-07 23:54 32.71845 -96.37489 17014 ft 404 kts 126°
2026-05-07 23:54 32.70455 -96.34566 17438 ft 411 kts 117°
2026-05-07 23:54 32.69551 -96.31345 17850 ft 416 kts 104°
2026-05-07 23:54 32.69163 -96.27917 18267 ft 420 kts 96°
2026-05-07 23:55 32.68962 -96.24503 18675 ft 422 kts 95°
2026-05-07 23:55 32.68781 -96.20978 19050 ft 425 kts 95°
2026-05-07 23:55 32.68589 -96.17490 19387 ft 429 kts 95°
2026-05-07 23:55 32.68377 -96.13960 19725 ft 434 kts 96°
2026-05-07 23:56 32.68147 -96.10365 20075 ft 437 kts 96°
2026-05-07 23:56 32.67908 -96.06766 20412 ft 440 kts 96°
2026-05-07 23:56 32.67665 -96.03150 20744 ft 443 kts 96°
2026-05-07 23:56 32.67417 -95.99498 21063 ft 447 kts 96°
2026-05-07 23:57 32.67166 -95.95817 21381 ft 451 kts 96°
2026-05-07 23:57 32.66913 -95.92106 21696 ft 454 kts 96°
2026-05-07 23:57 32.66658 -95.88409 22000 ft 458 kts 96°
2026-05-07 23:57 32.66398 -95.84630 22302 ft 461 kts 96°
2026-05-07 23:58 32.66135 -95.80845 22593 ft 464 kts 96°
2026-05-07 23:58 32.65868 -95.77013 22879 ft 468 kts 96°
2026-05-07 23:58 32.65597 -95.73141 23168 ft 471 kts 97°
2026-05-07 23:58 32.65327 -95.69296 23451 ft 474 kts 97°
2026-05-07 23:59 32.65051 -95.65377 23736 ft 477 kts 97°
2026-05-07 23:59 32.64772 -95.61443 24048 ft 480 kts 97°
2026-05-07 23:59 32.64494 -95.57542 24367 ft 482 kts 97°
2026-05-07 23:59 32.64211 -95.53569 24674 ft 484 kts 97°
2026-05-08 00:00 32.63924 -95.49573 24977 ft 486 kts 97°
2026-05-08 00:00 32.63638 -95.45608 25281 ft 489 kts 97°
2026-05-08 00:00 32.63345 -95.41566 25588 ft 491 kts 97°
2026-05-08 00:00 32.63053 -95.37562 25891 ft 493 kts 97°
2026-05-08 00:01 32.62754 -95.33468 26194 ft 496 kts 98°
2026-05-08 00:01 32.62458 -95.29436 26475 ft 498 kts 98°
2026-05-08 00:01 32.62155 -95.25321 26759 ft 500 kts 98°
2026-05-08 00:01 32.61851 -95.21219 27038 ft 503 kts 98°
2026-05-08 00:02 32.61545 -95.17101 27313 ft 505 kts 98°
2026-05-08 00:02 32.61235 -95.12962 27580 ft 507 kts 99°
2026-05-08 00:02 32.60922 -95.08805 27839 ft 510 kts 99°
2026-05-08 00:02 32.60606 -95.04607 28100 ft 512 kts 99°
2026-05-08 00:03 32.60286 -95.00384 28361 ft 515 kts 99°
2026-05-08 00:03 32.59969 -94.96215 28621 ft 517 kts 99°
2026-05-08 00:03 32.59643 -94.91947 28891 ft 519 kts 99°
2026-05-08 00:03 32.59314 -94.87663 29156 ft 522 kts 99°
2026-05-08 00:04 32.58970 -94.83421 29411 ft 523 kts 101°
2026-05-08 00:04 32.58450 -94.79142 29666 ft 523 kts 105°
2026-05-08 00:04 32.57708 -94.74965 29914 ft 522 kts 109°
2026-05-08 00:04 32.56720 -94.70816 30158 ft 520 kts 114°
2026-05-08 00:05 32.55592 -94.66782 30396 ft 522 kts 115°
2026-05-08 00:05 32.54419 -94.62714 30677 ft 522 kts 115°
2026-05-08 00:05 32.53257 -94.58690 31005 ft 521 kts 115°
2026-05-08 00:05 32.52089 -94.54619 31336 ft 520 kts 115°
2026-05-08 00:06 32.50940 -94.50597 31655 ft 520 kts 115°
2026-05-08 00:06 32.49781 -94.46525 31983 ft 520 kts 115°
2026-05-08 00:06 32.48637 -94.42499 32308 ft 519 kts 115°
2026-05-08 00:06 32.47483 -94.38443 32634 ft 518 kts 115°
2026-05-08 00:07 32.46339 -94.34424 32956 ft 518 kts 116°
2026-05-08 00:07 32.45187 -94.30382 33253 ft 517 kts 116°
2026-05-08 00:07 32.44037 -94.26352 33511 ft 517 kts 116°